Location: Vinland
(47.7731°N, 122.6974°W)
Time: 19:31:36
(UTC+00:00)

Vanguard 1 Rocket - Pass Details

Date: 25 March 2023
Orbit: 655 x 4220 km, 34.3° (Epoch: 05 June)

Event Time Altitude Azimuth Distance (km) Brightness Sun altitude
Exits shadow 11:21:18 31° 188° (S) 2,493 9.2 -26.2°
Drops below altitude 10° 11:26:32 10° 145° (SE) 3,105 10.1 -25.5°
Sets 11:28:59 0° 134° (SE) 3,767 10.7 -25.2°
